[[{"header":{"parameterUnit":"m.s-1","parameterCategory":1,"la1":30.2992,"la2":30.254,"lo1":-89.0895,"lo2":-89.0443,"dy":0.0025,"dx":0.0025,"nx":19,"ny":19,"refTime":"2026-05-02T21:00:00:Z","depth":0,"parameterNumber":2,"parameterNumberName":"U-component_of_WINDS"},"data":[0,0,0,-0.5922,-0.5923,-0.5967,-0.5967,-0.6007,-0.6007,0,0,0,0,0,0,0,0,0,0,0,-0.5902,-0.5902,-0.5922,-0.5923,-0.5967,-0.5967,-0.6007,-0.6007,0,0,0,0,0,0,0,0,0,0,0,-0.5901,-0.5902,-0.5902,-0.5923,-0.5967,-0.5967,-0.6007,-0.5979,0,0,0,0,0,0,0,0,0,0,-0.5939,-0.5913,-0.5902,-0.5902,-0.5924,-0.5967,-0.5967,-0.5978,-0.5981,-0.5981,0,-0.598,0,-0.5994,-0.6009,-0.6009,0,0,0,-0.5929,-0.5911,-0.5929,-0.5902,-0.5924,-0.5967,-0.5949,-0.598,-0.5983,-0.5984,-0.5981,-0.5983,-0.5995,-0.6009,-0.6009,-0.5993,-0.5993,0,0,-0.5926,-0.5905,-0.5927,-0.5931,-0.5925,-0.5947,-0.595,-0.5982,-0.5976,-0.5981,-0.5984,-0.5996,-0.6009,-0.601,-0.5993,-0.5993,0,0,0,-0.5916,-0.5903,-0.5922,-0.5929,-0.5938,-0.5948,-0.5952,-0.5975,-0.5983,-0.5985,-0.5996,-0.6009,-0.601,-0.5994,-0.5993,-0.5956,0,0,0,-0.5914,-0.5897,-0.592,-0.5907,-0.5937,-0.5958,-0.5943,-0.598,-0.5985,-0.5996,-0.6009,-0.601,-0.5994,-0.5994,-0.5958,-0.5942,0,0,0,-0.5901,-0.5895,-0.5899,-0.5906,-0.5925,-0.5958,-0.5968,-0.5982,-0.5991,-0.6009,-0.601,-0.5995,-0.5994,-0.596,-0.5945,-0.593,0,0,0,-0.5881,-0.5866,-0.5898,-0.5885,-0.5924,-0.5935,-0.5968,-0.5976,-0.5987,-0.601,-0.5994,-0.5993,-0.596,-0.5946,-0.5932,-0.5914,-0.5905,0,0,-0.585,-0.5861,-0.5855,-0.5886,-0.5885,-0.593,-0.5923,-0.5953,-0.5973,-0.5985,-0.5985,-0.5957,-0.5945,-0.5931,-0.5863,-0.5855,0,0,0,-0.5838,-0.5834,-0.5838,-0.5848,-0.587,-0.5887,-0.592,-0.5931,-0.5942,-0.5976,-0.5949,-0.5943,-0.5935,-0.5928,-0.5921,-0.5916,-0.5989,-0.5989,-0.5989,-0.5764,-0.5791,-0.5782,-0.5814,-0.5823,-0.5856,-0.5865,-0.5884,-0.591,-0.5903,-0.5906,-0.5862,-0.5852,-0.5847,-0.5841,-0.59,-0.5899,-0.5899,-0.5899,-0.572,-0.5717,-0.575,-0.5754,-0.5781,-0.5784,-0.5814,-0.5832,-0.5837,-0.5862,-0.5857,-0.5881,-0.5839,-0.5834,-0.5897,-0.5897,-0.5897,-0.5898,-0.5898,-0.5674,-0.5678,-0.5691,-0.5706,-0.5714,-0.5746,-0.5749,-0.5775,-0.5798,-0.5793,-0.5799,-0.5799,-0.5802,-0.5794,-0.5794,-0.5794,-0.5794,-0.5793,-0.5793,-0.5621,-0.5637,-0.5638,-0.5659,-0.5667,-0.5681,-0.5712,-0.5721,-0.5736,-0.5754,-0.5754,-0.5778,-0.583,-0.5842,-0.5791,-0.5791,-0.5792,-0.5792,-0.5792,-0.5566,-0.5582,-0.5583,-0.5591,-0.5616,-0.5621,-0.5653,-0.5667,-0.5678,-0.5678,-0.5703,-0.5737,-0.575,-0.5756,-0.5765,-0.5698,-0.5698,-0.5698,-0.5698,-0.5527,-0.5536,-0.5541,-0.5552,-0.5566,-0.5594,-0.5591,-0.5614,-0.564,-0.5647,-0.5661,-0.5676,-0.568,-0.5691,-0.5698,-0.5707,-0.5627,-0.5627,-0.5627,-0.5494,-0.5506,-0.5499,-0.5526,-0.5547,-0.5563,-0.5561,-0.557,-0.5603,-0.5624,-0.5653,-0.5656,-0.5682,-0.5689,-0.5711,-0.572,-0.5739,0,0]},{"header":{"parameterUnit":"m.s-1","parameterCategory":1,"la1":30.2992,"la2":30.254,"lo1":-89.0895,"lo2":-89.0443,"dy":0.0025,"dx":0.0025,"nx":19,"ny":19,"refTime":"2026-05-02T21:00:00:Z","depth":0,"parameterNumber":3,"parameterNumberName":"V-component_of_WINDS"},"data":[0,0,0,-0.3987,-0.3987,-0.3961,-0.3961,-0.3925,-0.3925,0,0,0,0,0,0,0,0,0,0,0,-0.3993,-0.3993,-0.3987,-0.3987,-0.3961,-0.3961,-0.3925,-0.3925,0,0,0,0,0,0,0,0,0,0,0,-0.3993,-0.3993,-0.3992,-0.3987,-0.3961,-0.3961,-0.3926,-0.3946,0,0,0,0,0,0,0,0,0,0,-0.3971,-0.3975,-0.3993,-0.3992,-0.3986,-0.3961,-0.3961,-0.3947,-0.3945,-0.3936,0,-0.3927,0,-0.3925,-0.3922,-0.3922,0,0,0,-0.3989,-0.3977,-0.3971,-0.3992,-0.3986,-0.3961,-0.3973,-0.3946,-0.3943,-0.3932,-0.3926,-0.3925,-0.3924,-0.3922,-0.3922,-0.3859,-0.3859,0,0,-0.399,-0.3988,-0.3973,-0.3969,-0.3973,-0.3974,-0.3972,-0.3944,-0.3938,-0.3926,-0.3924,-0.3924,-0.3922,-0.3922,-0.386,-0.3859,0,0,0,-0.3993,-0.3989,-0.3984,-0.3971,-0.3966,-0.3973,-0.3971,-0.3939,-0.3937,-0.3924,-0.3923,-0.3922,-0.3921,-0.386,-0.3859,-0.3836,0,0,0,-0.3994,-0.399,-0.3985,-0.3983,-0.3967,-0.3952,-0.3966,-0.3939,-0.3936,-0.3924,-0.3922,-0.3921,-0.386,-0.386,-0.3838,-0.3826,0,0,0,-0.3995,-0.3991,-0.3986,-0.3983,-0.3972,-0.3953,-0.395,-0.3939,-0.3936,-0.3922,-0.3921,-0.3861,-0.386,-0.3839,-0.3828,-0.3806,0,0,0,-0.3997,-0.3968,-0.3986,-0.3953,-0.3972,-0.3939,-0.395,-0.3926,-0.3912,-0.3921,-0.386,-0.3859,-0.384,-0.3829,-0.3808,-0.3786,-0.3777,0,0,-0.396,-0.3964,-0.3945,-0.3959,-0.3922,-0.3943,-0.3902,-0.3893,-0.3895,-0.3871,-0.3869,-0.3837,-0.3828,-0.3806,-0.3732,-0.3725,0,0,0,-0.3932,-0.3918,-0.3909,-0.3894,-0.3884,-0.3874,-0.387,-0.3866,-0.3846,-0.3882,-0.3825,-0.3819,-0.3807,-0.3796,-0.379,-0.3779,-0.3855,-0.3855,-0.3855,-0.3876,-0.3877,-0.3845,-0.3843,-0.3828,-0.3822,-0.381,-0.3804,-0.3813,-0.3799,-0.3791,-0.3746,-0.3734,-0.3729,-0.3717,-0.3782,-0.3781,-0.3781,-0.3781,-0.382,-0.3799,-0.3807,-0.3778,-0.378,-0.3757,-0.3749,-0.3755,-0.3733,-0.3752,-0.3741,-0.3761,-0.3721,-0.3711,-0.378,-0.378,-0.378,-0.378,-0.378,-0.3782,-0.3772,-0.3766,-0.3741,-0.3723,-0.3722,-0.3698,-0.3702,-0.3705,-0.3694,-0.3685,-0.3686,-0.3685,-0.369,-0.369,-0.369,-0.3689,-0.3689,-0.3689,-0.3745,-0.3738,-0.3718,-0.3702,-0.3691,-0.3676,-0.3669,-0.3658,-0.3647,-0.3651,-0.3651,-0.3659,-0.3718,-0.3731,-0.3687,-0.3687,-0.3688,-0.3688,-0.3688,-0.3685,-0.3698,-0.3666,-0.3654,-0.3634,-0.3613,-0.3617,-0.3594,-0.3586,-0.3574,-0.3584,-0.3627,-0.3632,-0.3637,-0.3648,-0.3585,-0.3585,-0.3585,-0.3585,-0.3651,-0.3653,-0.3619,-0.36,-0.3581,-0.358,-0.3542,-0.3535,-0.353,-0.3524,-0.3534,-0.355,-0.3555,-0.3557,-0.3563,-0.3574,-0.3493,-0.3493,-0.3493,-0.3613,-0.3613,-0.358,-0.3573,-0.3557,-0.3543,-0.3506,-0.3484,-0.3481,-0.3489,-0.352,-0.3524,-0.3549,-0.3557,-0.3565,-0.3575,-0.3594,0,0]}]]